F06AC378 Weather Reports


time (UTC)temp
F
wind
direction
speed
knots
gust
knots
rain 1hr
in
rain 24hr
in
rain mn
in
humidity
%
barometer
mb
20260507033535 40 88 0.0 1.7 0.00 0.22 0.00 75 1012.0
20260507033047 40 0 0.0 1.7 0.00 0.22 0.00 73 1012.1
20260507032534 40 88 0.0 0.9 0.00 0.22 0.00 73 1012.0
20260507032034 40 0 0.0 1.7 0.00 0.22 0.00 73 1012.0
20260507031541 40 0 0.0 1.7 0.00 0.22 0.00 74 1012.0
20260507031038 40 88 0.0 1.7 0.00 0.22 0.00 73 1011.9
20260507030538 41 0 0.0 1.7 0.00 0.22 0.00 72 1012.0
20260507030044 41 0 0.0 1.7 0.00 0.22 0.00 71 1011.9
20260507025536 40 0 0.0 1.7 0.00 0.22 0.00 71 1012.0
20260507025036 40 88 0.0 1.7 0.00 0.22 0.00 72 1012.0
20260507024548 41 0 0.0 0.9 0.00 0.22 0.00 71 1012.0
20260507024034 40 0 0.0 1.7 0.00 0.22 0.00 71 1012.0
20260507023534 40 88 0.0 1.7 0.00 0.22 0.00 74 1011.9
20260507023043 40 0 0.0 1.7 0.00 0.22 0.00 75 1012.0
20260507022533 40 0 0.0 1.7 0.00 0.22 0.00 75 1012.0
20260507022035 40 0 0.0 1.7 0.00 0.22 0.00 75 1011.9
20260507021553 40 0 0.0 1.7 0.00 0.22 0.00 75 1011.9
20260507021032 40 0 0.0 1.7 0.00 0.22 0.00 74 1012.0
20260507020533 40 0 0.0 1.7 0.00 0.22 0.00 75 1011.8
20260507020042 41 88 0.0 2.6 0.00 0.22 0.00 74 1011.8
20260507015538 41 88 0.9 2.6 0.00 0.22 0.00 74 1011.8
20260507015036 41 0 0.0 2.6 0.00 0.22 0.00 74 1011.8
20260507014546 41 0 0.0 2.6 0.00 0.22 0.00 74 1011.8
20260507014036 41 29 0.0 1.7 0.00 0.22 0.00 75 1011.8
20260507013534 41 29 0.0 1.7 0.00 0.22 0.00 75 1011.9
20260507013045 41 0 0.0 1.7 0.00 0.22 0.00 76 1011.8
20260507012535 41 0 0.0 1.7 0.00 0.22 0.00 75 1011.8
20260507012034 41 0 0.0 1.7 0.00 0.22 0.00 75 1011.8
20260507011545 41 131 0.0 1.7 0.00 0.22 0.00 74 1011.8
20260507011032 41 0 0.0 1.7 0.00 0.22 0.00 75 1011.7
20260507010533 41 45 0.0 1.7 0.00 0.22 0.00 75 1011.7
20260507010046 41 45 0.0 1.7 0.00 0.22 0.00 75 1011.8
20260507005535 41 45 0.0 1.7 0.00 0.22 0.00 74 1011.8
20260507005037 41 0 0.0 1.7 0.00 0.22 0.00 73 1011.9
20260507004540 41 0 0.0 2.6 0.00 0.22 0.00 73 1011.8
20260507004036 42 45 0.0 2.6 0.00 0.22 0.00 74 1011.9
20260507003535 42 45 0.0 1.7 0.00 0.22 0.00 74 1011.9
20260507003050 42 45 0.0 1.7 0.00 0.22 0.00 73 1011.9
20260507002536 43 45 0.0 2.6 0.00 0.22 0.00 73 1011.9
20260507002036 43 0 0.0 2.6 0.00 0.22 0.00 73 1011.9
20260507001544 42 44 0.0 2.6 0.00 0.22 0.00 73 1011.9
20260507001035 42 0 0.0 2.6 0.00 0.22 0.00 73 1011.9
20260507000538 42 63 0.0 3.5 0.00 0.22 0.00 73 1011.9
20260507000054 42 39 0.9 3.5 0.00 0.22 0.00 72 1011.9
20260506235536 42 41 0.0 2.6 0.00 0.22 0.00 72 1011.9
20260506235034 43 128 0.0 1.7 0.00 0.22 0.00 71 1012.0
20260506234550 43 0 0.0 2.6 0.00 0.22 0.00 72 1012.0
20260506234035 43 128 0.0 2.6 0.00 0.22 0.00 72 1011.9
20260506233535 43 128 0.0 1.7 0.00 0.22 0.00 73 1011.9
20260506233048 43 0 0.0 2.6 0.00 0.22 0.00 73 1011.9
20260506232536 43 0 0.0 2.6 0.00 0.22 0.00 74 1011.8
20260506232036 43 0 0.0 2.6 0.00 0.22 0.00 73 1011.9
20260506231546 43 128 0.0 2.6 0.00 0.22 0.00 74 1011.9
20260506231036 43 0 0.0 1.7 0.00 0.22 0.00 74 1012.0
20260506230534 43 128 0.0 1.7 0.00 0.22 0.00 74 1012.0
20260506230050 43 0 0.0 1.7 0.00 0.22 0.00 74 1012.0
20260506225536 43 128 0.0 1.7 0.00 0.22 0.00 74 1012.0
20260506225036 43 0 0.0 1.7 0.00 0.22 0.00 74 1012.0
20260506224549 43 0 0.0 1.7 0.00 0.22 0.00 75 1012.0
20260506224035 43 128 0.0 1.7 0.00 0.22 0.00 74 1012.0
20260506223537 43 128 0.0 1.7 0.00 0.22 0.00 74 1012.0
20260506223048 43 0 0.0 1.7 0.00 0.22 0.00 73 1012.0
20260506222535 44 128 0.0 2.6 0.00 0.22 0.00 73 1012.0
20260506222041 44 0 0.0 2.6 0.00 0.22 0.00 73 1012.0
20260506221547 44 128 0.9 2.6 0.00 0.22 0.00 72 1012.0
20260506221036 43 0 0.0 2.6 0.00 0.22 0.00 71 1011.9
20260506220536 43 0 0.0 1.7 0.00 0.22 0.00 73 1011.9
20260506220041 43 43 0.0 2.6 0.00 0.22 0.00 73 1011.9
20260506215536 43 0 0.9 2.6 0.00 0.22 0.22 73 1011.9
20260506215037 44 58 0.0 1.7 0.00 0.22 0.22 74 1011.8
20260506214544 44 0 0.0 1.7 0.00 0.22 0.22 74 1011.7
20260506214035 44 58 0.0 1.7 0.00 0.22 0.22 73 1011.8
20260506213538 44 0 0.0 1.7 0.00 0.22 0.22 73 1011.7
20260506213043 44 0 0.0 1.7 0.00 0.22 0.22 74 1011.7
20260506212536 44 0 0.0 2.6 0.00 0.22 0.22 74 1011.6
20260506212037 44 0 0.0 2.6 0.00 0.22 0.22 75 1011.5
20260506211541 44 58 0.9 2.6 0.00 0.22 0.22 75 1011.7
20260506211036 44 58 0.0 1.7 0.00 0.22 0.22 75 1011.6
20260506210537 44 58 0.0 1.7 0.00 0.22 0.22 75 1011.5
20260506210050 44 0 0.0 1.7 0.00 0.22 0.22 75 1011.4
20260506205536 45 0 0.0 1.7 0.00 0.22 0.22 74 1011.3
20260506205036 45 58 0.0 1.7 0.00 0.22 0.22 73 1011.3
20260506204554 45 0 0.0 1.7 0.00 0.22 0.22 72 1011.3
20260506204040 45 0 0.0 1.7 0.00 0.22 0.22 72 1011.2
20260506203536 45 58 0.0 2.6 0.00 0.22 0.22 73 1011.3
20260506203044 45 58 0.9 2.6 0.00 0.22 0.22 73 1011.1
20260506202536 45 58 0.0 1.7 0.00 0.22 0.22 73 1011.0
20260506202035 45 58 0.0 1.7 0.00 0.22 0.22 73 1011.0
20260506201553 46 0 0.0 3.5 0.00 0.22 0.22 72 1011.0
20260506201040 46 0 0.0 3.5 0.00 0.22 0.22 71 1011.0
20260506200534 46 58 0.0 3.5 0.00 0.22 0.22 71 1010.9
20260506200055 46 126 0.9 2.6 0.00 0.22 0.22 71 1010.8
20260506195536 46 137 0.0 2.6 0.00 0.22 0.22 71 1010.6
20260506195036 46 0 0.0 4.3 0.00 0.22 0.22 69 1010.6
20260506194558 46 0 0.0 4.3 0.00 0.22 0.22 69 1010.5
20260506194037 46 82 0.9 4.3 0.00 0.22 0.22 70 1010.3
20260506193539 46 5 0.9 4.3 0.00 0.22 0.22 71 1010.3
20260506193046 46 0 0.0 2.6 0.00 0.22 0.22 71 1010.3
20260506192534 46 77 0.9 2.6 0.00 0.22 0.22 72 1010.2
20260506192038 46 22 0.0 1.7 0.00 0.22 0.22 72 1010.0
20260506191545 46 22 0.0 4.3 0.00 0.22 0.22 72 1009.9
20260506191035 46 0 0.0 4.3 0.00 0.22 0.22 71 1009.8
20260506190538 46 34 0.9 4.3 0.00 0.22 0.22 74 1009.6
20260506190042 47 29 0.9 4.3 0.00 0.22 0.22 72 1009.6
20260506185534 47 31 0.0 4.3 0.00 0.22 0.22 71 1009.5
20260506185036 47 19 0.9 4.3 0.00 0.22 0.22 70 1009.4
20260506184550 48 108 0.9 2.6 0.00 0.22 0.22 71 1009.5
20260506184036 49 0 0.0 1.7 0.00 0.22 0.22 68 1009.5
20260506183535 50 146 0.0 1.7 0.00 0.22 0.22 66 1009.5
20260506183057 50 0 0.0 1.7 0.00 0.22 0.22 64 1009.3
20260506182534 50 146 0.0 2.6 0.00 0.22 0.22 63 1009.2
20260506182035 50 146 0.0 6.1 0.00 0.22 0.22 63 1009.2
20260506181555 50 218 0.0 6.1 0.00 0.22 0.22 63 1009.2
20260506181036 50 194 1.7 6.1 0.00 0.22 0.22 62 1009.1
20260506180537 51 136 0.0 2.6 0.00 0.22 0.22 62 1009.2
20260506180045 51 0 0.0 1.7 0.00 0.22 0.22 64 1009.0
20260506175537 51 144 0.0 4.3 0.00 0.22 0.22 62 1009.0
20260506175034 51 0 0.0 4.3 0.00 0.22 0.22 64 1009.0
20260506174542 51 166 1.7 4.3 0.00 0.22 0.22 65 1009.1
20260506174035 51 0 0.9 4.3 0.00 0.22 0.22 62 1009.1
20260506173535 51 323 0.9 7.8 0.00 0.22 0.22 61 1008.9
20260506173104 52 0 0.9 7.8 0.00 0.22 0.22 62 1008.8
20260506172535 52 249 0.9 5.2 0.00 0.22 0.22 62 1008.6
20260506172034 52 59 0.9 5.2 0.00 0.22 0.22 64 1008.6
20260506171549 52 0 0.0 3.5 0.00 0.22 0.22 65 1008.6
20260506171034 52 0 0.0 3.5 0.00 0.22 0.22 67 1008.4
20260506170536 52 44 0.9 3.5 0.00 0.22 0.22 64 1008.2
20260506170050 52 19 0.0 2.6 0.00 0.22 0.22 70 1008.3
20260506165538 53 321 0.0 2.6 0.00 0.22 0.22 68 1008.2
20260506165035 53 0 0.0 1.7 0.00 0.22 0.22 67 1008.2
20260506164549 53 0 0.0 2.6 0.00 0.22 0.22 64 1008.1
20260506164034 53 0 0.0 3.5 0.00 0.22 0.22 65 1008.2
20260506163535 53 0 0.9 3.5 0.00 0.22 0.22 65 1008.1
20260506163042 53 272 0.0 3.5 0.00 0.22 0.22 64 1008.2
20260506162534 54 200 0.9 3.5 0.00 0.22 0.22 64 1008.1
20260506162035 54 226 0.9 9.6 0.00 0.22 0.22 63 1008.1
20260506161602 54 317 0.9 9.6 0.00 0.22 0.22 61 1007.9
20260506161034 54 50 2.6 9.6 0.00 0.22 0.22 61 1007.8
20260506160535 55 0 0.9 5.2 0.00 0.22 0.22 63 1007.9
20260506160046 56 135 0.9 7.0 0.00 0.22 0.22 62 1008.0
20260506155534 57 205 1.7 8.7 0.00 0.22 0.22 59 1008.0
20260506155035 58 175 1.7 8.7 0.00 0.22 0.22 61 1007.9
20260506154554 58 165 1.7 7.0 0.00 0.22 0.22 60 1007.9
20260506154035 58 182 1.7 6.1 0.00 0.22 0.22 56 1008.0
20260506153535 58 248 2.6 6.1 0.00 0.22 0.22 51 1008.2
20260506153051 58 0 0.9 3.5 0.00 0.22 0.22 51 1008.0
20260506152535 57 159 0.9 4.3 0.00 0.22 0.22 56 1007.9
20260506152038 56 0 0.9 7.0 0.00 0.22 0.22 59 1007.8
20260506151604 56 42 2.6 7.0 0.00 0.22 0.22 59 1007.8
20260506151034 56 115 0.9 5.2 0.00 0.22 0.22 60 1007.8
20260506150534 56 129 1.7 5.2 0.00 0.22 0.22 58 1007.7
20260506150049 56 171 0.9 11.3 0.00 0.22 0.22 56 1007.8
20260506145535 56 56 2.6 11.3 0.00 0.22 0.22 58 1007.8
20260506145036 56 102 0.9 8.7 0.00 0.22 0.22 62 1007.8
20260506144541 56 322 3.5 8.7 0.00 0.22 0.22 63 1007.9
20260506144041 55 315 1.7 7.8 0.00 0.22 0.22 62 1008.0
20260506143535 54 319 2.6 8.7 0.00 0.22 0.22 62 1007.9
20260506143052 54 350 2.6 8.7 0.00 0.22 0.22 60 1008.0
20260506142536 54 26 2.6 7.8 0.00 0.22 0.22 64 1007.9
20260506142034 55 268 0.9 4.3 0.00 0.22 0.22 65 1008.1
20260506141542 55 0 1.7 4.3 0.00 0.22 0.22 64 1008.0
20260506141036 56 148 0.9 4.3 0.00 0.22 0.22 62 1008.0
20260506140538 56 180 1.7 5.2 0.00 0.22 0.22 61 1007.8
20260506140043 56 0 0.9 5.2 0.00 0.22 0.22 64 1007.7
20260506135536 56 0 1.7 5.2 0.00 0.22 0.22 65 1007.6
20260506135035 56 191 0.9 4.3 0.00 0.22 0.22 69 1007.6
20260506134544 56 218 0.9 4.3 0.00 0.22 0.22 65 1007.6
20260506134035 56 148 1.7 5.2 0.00 0.22 0.22 70 1007.6
20260506133536 56 207 1.7 5.2 0.00 0.22 0.22 69 1007.7
20260506133049 55 173 1.7 6.1 0.00 0.22 0.22 73 1007.7
20260506132535 55 123 1.7 6.1 0.00 0.22 0.22 75 1007.7
20260506132038 55 148 1.7 7.8 0.00 0.22 0.22 73 1007.8
20260506131544 54 203 1.7 7.8 0.00 0.22 0.22 79 1007.8
20260506131039 53 242 0.9 7.0 0.00 0.22 0.22 79 1007.9
20260506130534 53 158 1.7 7.0 0.00 0.22 0.22 80 1007.9
20260506130053 52 150 2.6 7.0 0.00 0.22 0.22 78 1008.0
20260506125536 52 145 2.6 5.2 0.00 0.22 0.22 81 1008.0
20260506125034 52 210 0.9 6.1 0.00 0.22 0.22 84 1008.1
20260506124550 51 191 1.7 6.1 0.00 0.22 0.22 84 1008.1
20260506124035 51 126 1.7 6.1 0.00 0.22 0.22 84 1008.1
20260506123535 51 149 1.7 6.1 0.00 0.22 0.22 84 1008.1
20260506123049 51 167 1.7 6.1 0.00 0.22 0.22 85 1008.2
20260506122536 51 202 2.6 6.1 0.00 0.22 0.22 87 1008.2
20260506122035 51 178 1.7 5.2 0.00 0.22 0.22 90 1008.1
20260506121547 51 0 1.7 4.3 0.00 0.22 0.22 90 1008.1
20260506121035 51 153 0.9 4.3 0.00 0.22 0.22 92 1008.2
20260506120535 50 153 1.7 5.2 0.00 0.22 0.22 90 1008.2
20260506120050 49 0 1.7 6.1 0.00 0.22 0.22 91 1008.2
20260506115534 49 200 1.7 7.0 0.01 0.22 0.22 91 1008.2
20260506115034 49 280 2.6 7.0 0.01 0.22 0.22 92 1008.2
20260506114546 48 202 1.7 6.1 0.02 0.22 0.22 92 1008.2
20260506114035 47 152 0.9 4.3 0.03 0.22 0.22 93 1008.2
20260506113535 46 194 0.9 4.3 0.03 0.22 0.22 93 1008.2
20260506113056 45 183 0.9 4.3 0.03 0.22 0.22 93 1008.3
20260506112535 45 200 0.0 4.3 0.04 0.22 0.22 93 1008.3
20260506112034 45 219 0.9 3.5 0.05 0.22 0.22 92 1008.3
20260506111540 45 128 0.0 3.5 0.11 0.22 0.22 92 1008.3
20260506111037 45 0 0.0 3.5 0.13 0.22 0.22 91 1008.1
20260506110535 46 0 0.9 2.6 0.12 0.21 0.21 91 1008.2
20260506110056 45 0 0.0 3.5 0.12 0.21 0.21 90 1008.5
20260506105536 46 0 0.9 3.5 0.11 0.20 0.20 89 1008.5
20260506105035 45 0 0.0 7.8 0.11 0.19 0.19 85 1008.5
20260506104600 45 0 0.9 7.8 0.11 0.19 0.19 85 1008.4
20260506104036 45 306 2.6 7.8 0.10 0.18 0.18 86 1008.3
20260506103535 45 50 0.9 5.2 0.10 0.18 0.18 89 1008.3
20260506103051 46 255 0.9 6.1 0.09 0.18 0.18 89 1008.5
20260506102535 46 44 0.9 7.0 0.08 0.17 0.17 87 1008.5
20260506102035 47 225 1.7 9.6 0.07 0.16 0.16 86 1008.6
20260506101555 48 316 1.7 9.6 0.01 0.10 0.10 85 1008.8
20260506101038 49 131 1.7 6.1 0.00 0.08 0.08 85 1008.3
20260506100535 50 131 0.9 5.2 0.00 0.08 0.08 87 1008.0
20260506100055 50 234 0.9 7.0 0.00 0.08 0.08 86 1007.9
20260506095538 50 215 1.7 7.0 0.00 0.08 0.08 86 1007.7
20260506095036 50 144 3.5 7.0 0.00 0.08 0.08 87 1007.6
20260506094552 49 222 0.9 6.1 0.00 0.08 0.08 90 1007.4
20260506094037 49 180 1.7 6.1 0.00 0.08 0.08 89 1007.3
20260506093538 49 155 2.6 6.1 0.00 0.08 0.08 91 1007.4
20260506093047 49 211 1.7 7.0 0.00 0.08 0.08 92 1007.3
20260506092535 49 167 1.7 7.0 0.00 0.08 0.08 92 1007.2
20260506092035 48 212 0.9 7.0 0.00 0.08 0.08 93 1007.3
20260506091542 48 147 1.7 6.1 0.00 0.08 0.08 93 1007.2
20260506091038 47 237 1.7 6.1 0.00 0.08 0.08 93 1007.2
20260506090535 47 188 0.9 4.3 0.00 0.08 0.08 93 1007.2
20260506090043 47 0 0.9 3.5 0.00 0.08 0.08 93 1007.2
20260506085535 47 0 0.9 4.3 0.00 0.08 0.08 94 1007.2
20260506085035 47 200 0.9 6.1 0.00 0.08 0.08 94 1007.3
20260506084549 47 182 1.7 6.1 0.00 0.08 0.08 94 1007.3
20260506084035 47 163 1.7 6.1 0.00 0.08 0.08 94 1007.3
20260506083537 47 206 0.9 6.1 0.00 0.08 0.08 94 1007.3
20260506083045 47 165 1.7 8.7 0.00 0.08 0.08 94 1007.3
20260506082539 47 216 1.7 8.7 0.00 0.08 0.08 95 1007.3
20260506082035 47 175 1.7 6.1 0.00 0.08 0.08 95 1007.3
20260506081546 47 184 0.9 5.2 0.00 0.08 0.08 95 1007.3
20260506081035 46 184 0.0 5.2 0.00 0.08 0.08 95 1007.2
20260506080535 46 216 0.0 2.6 0.00 0.08 0.08 95 1007.1
20260506073045 45 168 0.9 5.2 0.00 0.08 0.07 93 1006.8
20260506072535 46 171 0.9 4.3 0.00 0.08 0.07 93 1006.7
20260506072035 46 150 0.0 3.5 0.00 0.08 0.07 93 1006.7
20260506071600 46 170 0.9 3.5 0.00 0.08 0.07 92 1006.8
20260506071035 46 0 0.0 3.5 0.00 0.08 0.07 92 1006.7
20260506070535 46 183 0.0 3.5 0.00 0.08 0.07 92 1006.7
20260506062034 45 0 0.0 1.7 0.04 0.08 0.07 90 1006.8
20260506061548 45 0 0.0 4.3 0.04 0.08 0.07 90 1006.9
20260506061036 45 171 0.9 4.3 0.05 0.08 0.07 91 1006.9
20260506060538 45 170 0.9 5.2 0.06 0.08 0.07 92 1006.8
20260506051036 45 59 0.0 2.6 0.02 0.10 0.02 95 1007.3
20260506050535 45 0 0.0 3.5 0.01 0.09 0.01 95 1007.2
20260506045035 45 0 0.0 2.6 0.01 0.12 0.01 95 1007.3
20260506044545 45 160 0.0 1.7 0.00 0.11 0.00 95 1007.4
20260506044035 45 0 0.0 1.7 0.00 0.11 0.00 95 1007.4
20260506043540 45 160 0.0 0.9 0.00 0.11 0.00 95 1007.4
20260506043047 45 0 0.0 3.5 0.00 0.11 0.00 95 1007.4
20260506042536 45 0 0.0 4.3 0.00 0.11 0.00 95 1007.5
20260506042040 45 0 0.0 4.3 0.00 0.11 0.00 95 1007.4
20260506041555 45 26 1.7 4.3 0.00 0.11 0.00 95 1007.4
20260506041035 45 0 0.0 4.3 0.00 0.11 0.00 94 1007.5
20260506040535 45 0 0.0 4.3 0.00 0.11 0.00 94 1007.5
20260506040050 45 142 0.9 4.3 0.00 0.11 0.00 94 1007.6
20260506035538 45 140 1.7 4.3 0.00 0.14 0.00 94 1007.7
20260506035038 45 146 1.7 3.5 0.00 0.14 0.00 94 1007.6
20260506034554 45 128 0.9 3.5 0.00 0.14 0.00 94 1007.8
20260506034036 45 142 0.0 2.6 0.00 0.14 0.00 94 1007.9